AFL3408 URSS-URMM

Flight info

Callsign AFL3408
Flight time 0h 36m
Altitude 23000
Route BINOL G487 ERSAR B967 ABELA
Aircraft A20N/M-SDE2E3FGHIRWXY/LB1

Departure

Time 2026-04-26 17:34
Airport Sochi International Airport (URSS)

Arrival

Time 2026-04-26 18:10
Airport Mineralnye Vody Airport (URMM)
Time Latitude Longitude Altitude Speed Heading
2026-04-26 16:47 43.44800 39.94309 62 ft 0 kts 334°
2026-04-26 17:19 43.44799 39.94309 62 ft 0 kts 334°
2026-04-26 17:19 43.44791 39.94315 62 ft 2 kts 333°
2026-04-26 17:19 43.44779 39.94323 61 ft 2 kts 334°
2026-04-26 17:20 43.44766 39.94332 61 ft 2 kts 333°
2026-04-26 17:20 43.44762 39.94334 61 ft 2 kts 333°
2026-04-26 17:20 43.44740 39.94350 60 ft 2 kts 334°
2026-04-26 17:20 43.44727 39.94358 59 ft 2 kts 334°
2026-04-26 17:21 43.44715 39.94366 59 ft 2 kts 333°
2026-04-26 17:21 43.44701 39.94375 58 ft 2 kts 350°
2026-04-26 17:21 43.44689 39.94373 58 ft 2 kts 25°
2026-04-26 17:21 43.44679 39.94363 58 ft 1 kts 56°
2026-04-26 17:22 43.44676 39.94356 57 ft 1 kts 71°
2026-04-26 17:22 43.44674 39.94351 57 ft 0 kts 65°
2026-04-26 17:30 43.44677 39.94358 57 ft 2 kts 64°
2026-04-26 17:30 43.44694 39.94408 58 ft 8 kts 64°
2026-04-26 17:31 43.44730 39.94507 58 ft 15 kts 65°
2026-04-26 17:31 43.44777 39.94646 59 ft 19 kts 65°
2026-04-26 17:31 43.44833 39.94815 60 ft 19 kts 65°
2026-04-26 17:31 43.44896 39.94995 61 ft 19 kts 62°
2026-04-26 17:32 43.44962 39.95178 64 ft 23 kts 65°
2026-04-26 17:32 43.45023 39.95353 67 ft 22 kts 64°
2026-04-26 17:32 43.45056 39.95477 70 ft 4 kts 92°
2026-04-26 17:32 43.45053 39.95493 71 ft 0 kts 111°
2026-04-26 17:33 43.45050 39.95500 71 ft 3 kts 116°
2026-04-26 17:33 43.45014 39.95542 70 ft 11 kts 153°
2026-04-26 17:33 43.44943 39.95499 69 ft 17 kts 239°
2026-04-26 17:34 43.44485 39.94167 60 ft 153 kts 245°
2026-04-26 17:34 43.44054 39.92945 346 ft 182 kts 244°
2026-04-26 17:34 43.43590 39.91316 1377 ft 182 kts 256°
2026-04-26 17:34 43.43391 39.89668 2461 ft 179 kts 260°
2026-04-26 17:35 43.43220 39.87904 3208 ft 196 kts 261°
2026-04-26 17:35 43.43112 39.85963 3935 ft 215 kts 273°
2026-04-26 17:35 43.43613 39.84078 4470 ft 240 kts 302°
2026-04-26 17:35 43.44643 39.82284 5158 ft 258 kts 309°
2026-04-26 17:36 43.45855 39.80376 5881 ft 275 kts 309°
2026-04-26 17:36 43.47159 39.78256 6922 ft 282 kts 307°
2026-04-26 17:36 43.48408 39.76138 8049 ft 284 kts 305°
2026-04-26 17:36 43.49596 39.74061 9061 ft 286 kts 304°
2026-04-26 17:37 43.50814 39.71890 10127 ft 289 kts 303°
2026-04-26 17:37 43.52034 39.69687 10968 ft 300 kts 303°
2026-04-26 17:37 43.53338 39.67313 11577 ft 318 kts 303°
2026-04-26 17:38 43.55968 39.62532 13072 ft 338 kts 303°
2026-04-26 17:38 43.57409 39.59919 14077 ft 341 kts 303°
2026-04-26 17:38 43.58874 39.57256 15037 ft 344 kts 303°
2026-04-26 17:38 43.60321 39.54642 15950 ft 349 kts 306°
2026-04-26 17:39 43.62071 39.52449 16747 ft 361 kts 324°
2026-04-26 17:39 43.64461 39.51117 17617 ft 374 kts 345°
2026-04-26 17:39 43.66759 39.50908 18342 ft 384 kts
2026-04-26 17:39 43.69091 39.51683 19112 ft 393 kts 21°
2026-04-26 17:40 43.71339 39.53871 20161 ft 395 kts 45°
2026-04-26 17:40 43.71898 39.54765 20509 ft 394 kts 52°
2026-04-26 17:40 43.73603 39.60569 22024 ft 395 kts 79°
2026-04-26 17:40 43.74075 39.64091 22594 ft 400 kts 81°
2026-04-26 17:41 43.74545 39.67710 22921 ft 402 kts 81°
2026-04-26 17:41 43.75071 39.71555 22981 ft 402 kts 80°
2026-04-26 17:41 43.75575 39.75073 22993 ft 402 kts 79°
2026-04-26 17:41 43.76142 39.78911 23001 ft 402 kts 79°
2026-04-26 17:42 43.76656 39.82351 23002 ft 402 kts 79°
2026-04-26 17:42 43.77198 39.85977 23004 ft 402 kts 79°
2026-04-26 17:42 43.77752 39.89688 23009 ft 402 kts 79°
2026-04-26 17:42 43.78284 39.93365 23010 ft 402 kts 80°
2026-04-26 17:43 43.78744 39.96885 23010 ft 401 kts 81°
2026-04-26 17:43 43.79198 40.00462 23012 ft 401 kts 81°
2026-04-26 17:43 43.79641 40.03963 23016 ft 401 kts 81°
2026-04-26 17:43 43.80106 40.07629 23022 ft 400 kts 81°
2026-04-26 17:44 43.80566 40.11243 23029 ft 400 kts 81°
2026-04-26 17:44 43.81007 40.14692 23035 ft 400 kts 81°
2026-04-26 17:44 43.81474 40.18352 23041 ft 400 kts 81°
2026-04-26 17:44 43.81929 40.21912 23044 ft 400 kts 81°
2026-04-26 17:45 43.82373 40.25399 23047 ft 399 kts 81°
2026-04-26 17:45 43.82824 40.28948 23053 ft 400 kts 81°
2026-04-26 17:45 43.83312 40.32804 23056 ft 399 kts 81°
2026-04-26 17:45 43.83765 40.36383 23057 ft 399 kts 81°
2026-04-26 17:46 43.84251 40.40231 23058 ft 399 kts 81°
2026-04-26 17:46 43.84689 40.43713 23059 ft 399 kts 81°
2026-04-26 17:46 43.85131 40.47225 23056 ft 399 kts 81°
2026-04-26 17:46 43.85584 40.50845 23055 ft 400 kts 81°
2026-04-26 17:47 43.86060 40.54648 23051 ft 400 kts 81°
2026-04-26 17:47 43.86201 40.55782 23051 ft 400 kts 81°
2026-04-26 17:47 43.86968 40.61968 23050 ft 400 kts 81°
2026-04-26 17:47 43.87430 40.65708 23049 ft 400 kts 82°
2026-04-26 17:48 43.87998 40.69615 23049 ft 400 kts 77°
2026-04-26 17:48 43.88696 40.72905 23046 ft 401 kts 72°
2026-04-26 17:48 43.89667 40.76370 23046 ft 400 kts 68°
2026-04-26 17:48 43.90780 40.79951 23040 ft 400 kts 67°
2026-04-26 17:49 43.91840 40.83300 23024 ft 400 kts 66°
2026-04-26 17:49 43.92956 40.86838 23010 ft 400 kts 67°
2026-04-26 17:49 43.94036 40.90282 22996 ft 399 kts 67°
2026-04-26 17:49 43.95143 40.93832 22983 ft 400 kts 67°
2026-04-26 17:50 43.96288 40.97521 22966 ft 401 kts 67°
2026-04-26 17:50 43.97277 41.00713 22957 ft 400 kts 67°
2026-04-26 17:50 43.98352 41.04186 22947 ft 400 kts 67°
2026-04-26 17:50 43.99447 41.07737 22947 ft 400 kts 67°
2026-04-26 17:51 44.00519 41.11217 22946 ft 400 kts 67°
2026-04-26 17:51 44.01618 41.14793 22720 ft 399 kts 67°
2026-04-26 17:51 44.02637 41.18113 22480 ft 397 kts 67°
2026-04-26 17:51 44.03663 41.21455 22239 ft 396 kts 67°
2026-04-26 17:52 44.04733 41.24945 21987 ft 394 kts 67°
2026-04-26 17:52 44.05805 41.28446 21733 ft 392 kts 67°
2026-04-26 17:52 44.06877 41.31945 21478 ft 392 kts 67°
2026-04-26 17:52 44.07937 41.35412 21222 ft 390 kts 67°
2026-04-26 17:53 44.08972 41.38810 20974 ft 389 kts 67°
2026-04-26 17:53 44.09988 41.42152 20722 ft 387 kts 67°
2026-04-26 17:53 44.10917 41.45267 20490 ft 386 kts 69°
2026-04-26 17:54 44.12132 41.52369 19991 ft 381 kts 84°
2026-04-26 17:54 44.12402 41.55954 19734 ft 379 kts 85°
2026-04-26 17:54 44.12632 41.59511 19468 ft 378 kts 85°
2026-04-26 17:54 44.12864 41.63128 19102 ft 376 kts 85°
2026-04-26 17:55 44.13079 41.66421 18724 ft 374 kts 86°
2026-04-26 17:55 44.13306 41.69861 18319 ft 370 kts 86°
2026-04-26 17:55 44.13543 41.73423 17896 ft 368 kts 86°
2026-04-26 17:55 44.13771 41.76812 17468 ft 365 kts 86°
2026-04-26 17:56 44.14006 41.80303 17021 ft 362 kts 85°
2026-04-26 17:56 44.14472 41.87252 16139 ft 357 kts 85°
2026-04-26 17:57 44.14926 41.94080 15269 ft 351 kts 85°
2026-04-26 17:57 44.15149 41.97449 14838 ft 349 kts 85°
2026-04-26 17:57 44.15372 42.00825 14384 ft 348 kts 85°
2026-04-26 17:57 44.15583 42.04052 13961 ft 346 kts 85°
2026-04-26 17:58 44.16234 42.13998 12671 ft 340 kts 86°
2026-04-26 17:59 44.16653 42.20512 11736 ft 336 kts 86°
2026-04-26 17:59 44.16861 42.23761 11269 ft 333 kts 86°
2026-04-26 17:59 44.17054 42.26807 11001 ft 329 kts 87°
2026-04-26 17:59 44.17257 42.30018 10961 ft 330 kts 87°
2026-04-26 18:00 44.17453 42.33150 10958 ft 331 kts 87°
2026-04-26 18:00 44.17654 42.36371 10950 ft 321 kts 86°
2026-04-26 18:00 44.17832 42.39202 10949 ft 311 kts 87°
2026-04-26 18:00 44.18017 42.42166 10946 ft 310 kts 87°
2026-04-26 18:01 44.18213 42.45011 10947 ft 310 kts 83°
2026-04-26 18:01 44.18491 42.47964 10950 ft 309 kts 86°
2026-04-26 18:01 44.18644 42.50998 10959 ft 345 kts 88°
2026-04-26 18:01 44.18801 42.54439 10956 ft 382 kts 87°
2026-04-26 18:02 44.19009 42.58251 10946 ft 405 kts 85°
2026-04-26 18:02 44.19147 42.59569 10932 ft 398 kts 79°
2026-04-26 18:02 44.20608 42.65158 10479 ft 370 kts 67°
2026-04-26 18:02 44.21607 42.68184 9712 ft 355 kts 66°
2026-04-26 18:03 44.22623 42.71272 9046 ft 341 kts 66°
2026-04-26 18:03 44.23529 42.74078 8647 ft 332 kts 66°
2026-04-26 18:03 44.24560 42.76887 8207 ft 326 kts 54°
2026-04-26 18:03 44.26224 42.78974 7776 ft 318 kts 31°
2026-04-26 18:04 44.28077 42.80395 7314 ft 307 kts 26°
2026-04-26 18:04 44.29942 42.81758 6615 ft 296 kts 27°
2026-04-26 18:04 44.31627 42.83074 5894 ft 288 kts 30°
2026-04-26 18:05 44.33624 42.87197 4641 ft 253 kts 93°
2026-04-26 18:05 44.33122 42.89320 4124 ft 221 kts 133°
2026-04-26 18:05 44.31975 42.90458 4032 ft 185 kts 150°
2026-04-26 18:05 44.30973 42.91414 4098 ft 164 kts 142°
2026-04-26 18:06 44.30207 42.92366 4054 ft 140 kts 135°
2026-04-26 18:06 44.29615 42.93317 3991 ft 122 kts 129°
2026-04-26 18:06 44.29123 42.94238 4005 ft 121 kts 127°
2026-04-26 18:06 44.28636 42.95224 4014 ft 120 kts 125°
2026-04-26 18:07 44.28197 42.96153 4007 ft 121 kts 124°
2026-04-26 18:07 44.27729 42.97142 3658 ft 125 kts 124°
2026-04-26 18:07 44.27278 42.98117 3149 ft 136 kts 123°
2026-04-26 18:07 44.26988 42.98743 2878 ft 137 kts 123°
2026-04-26 18:08 44.26317 43.00163 2366 ft 134 kts 123°
2026-04-26 18:08 44.25831 43.01270 1924 ft 135 kts 121°
2026-04-26 18:08 44.25418 43.02249 1668 ft 123 kts 121°
2026-04-26 18:08 44.24974 43.03253 1582 ft 117 kts 122°
2026-04-26 18:09 44.24572 43.04139 1411 ft 114 kts 122°
2026-04-26 18:09 44.24159 43.05041 1292 ft 114 kts 123°
2026-04-26 18:09 44.23753 43.05912 1141 ft 113 kts 122°
2026-04-26 18:09 44.23342 43.06820 1055 ft 112 kts 122°
2026-04-26 18:10 44.23008 43.07573 1053 ft 70 kts 122°
2026-04-26 18:10 44.22790 43.08066 1053 ft 54 kts 122°
2026-04-26 18:10 44.22609 43.08466 1053 ft 47 kts 122°
2026-04-26 18:10 44.22414 43.08794 1053 ft 40 kts 144°
2026-04-26 18:11 44.22243 43.08929 1053 ft 13 kts 154°
2026-04-26 18:11 44.22221 43.08945 1053 ft 0 kts 152°
2026-04-26 18:11 44.22221 43.08946 1053 ft 0 kts 152°
2026-04-26 18:12 44.22207 43.08956 1053 ft 7 kts 152°
2026-04-26 18:12 44.22132 43.09011 1053 ft 17 kts 151°
2026-04-26 18:12 44.22005 43.09106 1053 ft 23 kts 152°
2026-04-26 18:12 44.21885 43.09085 1053 ft 15 kts 214°
2026-04-26 18:13 44.21859 43.09101 1053 ft 9 kts 359°
2026-04-26 18:13 44.21840 43.09049 1053 ft 9 kts 199°
2026-04-26 18:13 44.21781 43.09012 1053 ft 10 kts 210°
2026-04-26 18:13 44.21762 43.08997 1053 ft 0 kts 210°